Regional Weather Roundup
Issued by NWS Albany, NY

Home | Current Version | Previous Version | Text Only | Print | Product List | Glossary On
Versions: 1 2 3 4 5 6 7 8 9 10 11 12 13 14 15 16 17 18 19 20 21 22 23 24 25 26 27 28 29 30 31 32 33 34 35 36 37 38 39 40 41 42 43 44 45 46 47 48 49 50
000
ASUS41 KALY 230910
RWRALY

NEW YORK STATE HOURLY WEATHER ROUNDUP
NATIONAL WEATHER SERVICE ALBANY NY
500 AM EDT MON OCT 23 2017

NOTE: "FAIR" INDICATES FEW OR NO CLOUDS BELOW 12,000 FEET WITH NO
SIGNIFICANT WEATHER AND/OR NO OBSTRUCTIONS TO VISIBILITY.

NYZ032-033-038>043-046>054-057>066-NYZ062>081-082-084-231000-
EAST


CITY           SKY/WX    TMP DP  RH WIND       PRES   REMARKS
ALBANY         CLOUDY    48  40  73 CALM      30.29S
GLENS FALLS    CLEAR     40  38  93 CALM      30.28S
POUGHKEEPSIE   CLOUDY    50  46  86 CALM      30.33S
NEWBURGH       MOCLDY    54  52  94 CALM      30.34S
MONTGOMERY     CLOUDY    50  48  93 CALM      30.32S
WHITE PLAINS   FOG       59  58  96 E5        30.33S VSB 1/4
ISLIP          FOG       55  55 100 CALM      30.33S VSB 1/2
NEW YORK CITY  MOCLDY    62  60  93 CALM      30.32S
CENTRAL PARK   CLOUDY    63  61  93 CALM      30.34F
$$

NYZ005>009-017-018-044>046-055-056-231000-
CENTRAL


CITY           SKY/WX    TMP DP  RH WIND       PRES   REMARKS
FULTON         MOCLDY    60  46  59 SE5       30.17F
SYRACUSE       MOCLDY    60  46  59 SE10      30.19F
ROME           PTCLDY    49  44  83 E3        30.26R
ELMIRA         CLOUDY    50  47  89 CALM      30.21F
BINGHAMTON     MOCLDY    53  41  63 S5        30.25F
MONTICELLO     MOCLDY    52  50  93 CALM      30.33S
$$

NYZ026>034-041>043-087-231000-
NORTH


CITY           SKY/WX    TMP DP  RH WIND       PRES   REMARKS
WATERTOWN      MOCLDY    62  47  57 S9        30.15S
FORT DRUM      NOT AVBL
OGDENSBURG     FAIR      58  46  63 S6        30.16F
MASSENA        PTCLDY    43  42  97 CALM      30.19S
SARANAC LAKE   CLEAR     34  34 100 CALM      30.23R
PLATTSBURGH    CLEAR     42  41  96 CALM      30.21F
$$

NYZ001>004-010>016-019>021-085-231000-
WEST


CITY           SKY/WX    TMP DP  RH WIND       PRES   REMARKS
NIAGARA FALLS  PTCLDY    63  52  67 S6        30.07F
BUFFALO        MOCLDY    63  52  67 SE9       30.08F
DUNKIRK        CLOUDY    64  53  67 S15       30.09S
JAMESTOWN      MOCLDY    58  52  80 S12G17    30.14S
WELLSVILLE     CLOUDY    58  48  69 S10G21    30.20F
ROCHESTER      MOCLDY    63  52  67 S8        30.13F
PENN YAN       MOCLDY    60  47  61 S9        30.18F
$$

             KEY
       WCI = WIND CHILL INDEX
       VSB = VISIBILITY
       HX  = HEAT INDEX
$$



USA.gov is the U.S. government's official web portal to all federal, state and local government web resources and services.